Simultaneous Nadir Overpasses (SNOs) Predictions

Prediction of SNOs between METOP-A and NOAA-19 Satellite Orbit:

Table of predicted SNOs for the next 14.0 days since TLE Epoch: 11/6/2021
Index Date (METOP-A) Time (METOP-A) Lat,Lon (METOP-A) SZA (METOP-A ) Date (NOAA-19) Time (NOAA-19) Lat,Lon (NOAA-19) SZA (NOAA-19 ) Distance(km) Time Diff (sec)
1 11/16/2021 16:34:12 -79.91, 105.45 81.24 11/16/2021 16:32:59 -79.91, 105.45 81.23 0.34 73
2 11/16/2021 17:24:51 79.95, -86.84 98.82 11/16/2021 17:23:55 79.94, -86.98 98.80 3.22 56
3 11/16/2021 18:15:32 -79.96, 80.53 81.18 11/16/2021 18:14:57 -79.97, 80.63 81.17 2.02 35
4 11/16/2021 19:06:12 79.97,-112.04 98.85 11/16/2021 19:05:54 79.97,-112.11 98.85 1.48 18
5 11/16/2021 19:56:52 -80.01, 55.62 81.11 11/16/2021 19:56:56 -79.99, 55.50 81.12 2.71 4
6 11/16/2021 20:47:32 80.02,-136.95 98.91 11/16/2021 20:47:52 80.02,-136.93 98.91 0.38 20
7 11/16/2021 21:38:12 -80.05, 30.72 81.05 11/16/2021 21:38:54 -80.05, 30.68 81.06 0.95 42



Historial Predications of SNOs between METOP-A and NOAA-19
